[[{"header":{"parameterUnit":"m.s-1","parameterCategory":1,"la1":30.2991,"la2":30.254,"lo1":-89.0895,"lo2":-89.0444,"dy":0.0017,"dx":0.0017,"nx":28,"ny":28,"refTime":"2025-08-25T21:00:00:Z","depth":0,"parameterNumber":2,"parameterNumberName":"U-component_of_WINDS"},"data":[0,0,0,0,0,0,0,0,0,0,0,0,0,0,0,0,0,0,0,0,0,0,0,0,0,0,0,0,0,0,0,0,0,0,0,0,0,0,0,0,0,0,0,0,0,0,0,0,0,0,0,0,0,0,0,0,0,0,-0.1781,-0.1781,0,-0.1738,-0.1737,-0.1737,-0.1713,-0.1713,-0.1713,-0.1713,-0.1668,-0.1667,-0.1666,0,0,0,0,0,0,0,0,0,0,0,0,0,-0.1843,-0.1842,-0.1781,-0.1781,-0.178,-0.1738,-0.1737,-0.1737,-0.1713,-0.1713,-0.1713,-0.1713,-0.1668,-0.1667,-0.1665,0,0,0,0,0,0,0,0,0,0,0,0,0,-0.1809,-0.1841,-0.1781,-0.1763,-0.1761,-0.1738,-0.1737,-0.1736,-0.1713,-0.1713,-0.1713,-0.1713,-0.1669,-0.1667,-0.1665,-0.1656,0,0,-0.166,-0.1659,0,0,0,0,0,0,0,0,-0.1811,-0.1807,-0.1767,-0.1765,-0.1762,-0.1731,-0.1742,-0.1709,-0.1713,-0.1731,-0.1713,-0.1713,-0.1689,-0.1685,-0.1677,-0.1654,-0.1652,-0.166,-0.1659,-0.1658,-0.1658,0,0,0,0,0,0,0,-0.1814,-0.1809,-0.1764,-0.1766,-0.1763,-0.1757,-0.1752,-0.1736,-0.1711,-0.173,-0.1728,-0.1723,-0.1688,-0.1679,-0.1676,-0.1651,-0.166,-0.1658,-0.1657,-0.1657,-0.1617,-0.1617,0,0,0,0,0,0,-0.1819,-0.1811,-0.1765,-0.1763,-0.1787,-0.1756,-0.1751,-0.1741,-0.1711,-0.1707,-0.1723,-0.1722,-0.1682,-0.1678,-0.1674,-0.1661,-0.1658,-0.1656,-0.1655,-0.1617,-0.1617,-0.1617,0,0,0,0,0,0,-0.182,-0.1815,-0.1767,-0.1786,-0.178,-0.1755,-0.1744,-0.174,-0.1732,-0.1706,-0.1702,-0.1719,-0.1682,-0.1677,-0.1661,-0.1659,-0.1656,-0.1654,-0.1617,-0.1617,-0.1617,-0.1634,0,0,0,0,0,0,-0.1822,-0.1816,-0.1813,-0.1786,-0.1779,-0.1755,-0.1744,-0.1739,-0.1729,-0.1727,-0.1701,-0.1697,-0.1681,-0.1663,-0.1659,-0.1657,-0.1653,-0.1617,-0.1617,-0.1617,-0.1634,-0.1635,-0.1636,0,0,0,0,0,-0.1825,-0.1819,-0.1812,-0.1807,-0.1774,-0.1754,-0.175,-0.1733,-0.1729,-0.1725,-0.1708,-0.1698,-0.166,-0.1662,-0.1657,-0.1654,-0.1617,-0.1617,-0.1617,-0.1633,-0.1635,-0.1636,0,0,0,0,0,0,-0.1846,-0.1816,-0.1808,-0.1794,-0.1777,-0.1751,-0.1745,-0.1735,-0.1718,-0.1717,-0.1696,-0.169,-0.1676,-0.1663,-0.1666,-0.1643,-0.1637,-0.1636,-0.1652,-0.1653,-0.1654,-0.1657,-0.1651,0,0,0,0,0,-0.1849,-0.1836,-0.181,-0.1801,-0.1792,-0.177,-0.1761,-0.1749,-0.173,-0.1723,-0.1705,-0.1687,-0.1671,-0.1661,-0.1645,-0.1632,-0.1625,-0.1627,-0.1628,-0.1629,-0.1628,-0.1619,-0.1619,-0.1616,-0.1616,-0.1616,0,0,-0.1856,-0.1838,-0.1831,-0.1804,-0.179,-0.1776,-0.1764,-0.1751,-0.174,-0.1721,-0.1704,-0.169,-0.1669,-0.1654,-0.1646,-0.1643,-0.1628,-0.1629,-0.163,-0.1629,-0.1619,-0.1619,-0.162,-0.1616,-0.1616,-0.1616,0,0,-0.1861,-0.1846,-0.1836,-0.1821,-0.1799,-0.1784,-0.1781,-0.1756,-0.1746,-0.1729,-0.1714,-0.1701,-0.1674,-0.1659,-0.1648,-0.1645,-0.1634,-0.1641,-0.1646,-0.1637,-0.1638,-0.1638,-0.1636,-0.1636,-0.164,-0.164,-0.164,0,-0.1871,-0.1851,-0.1832,-0.1819,-0.1807,-0.1789,-0.1778,-0.1764,-0.1738,-0.173,-0.1727,-0.1692,-0.1676,-0.1656,-0.1656,-0.1647,-0.1643,-0.1644,-0.1639,-0.1639,-0.1639,-0.1637,-0.1636,-0.1641,-0.1641,-0.1641,-0.1641,0,-0.1865,-0.185,-0.1845,-0.1819,-0.1807,-0.1795,-0.1774,-0.1764,-0.1752,-0.1738,-0.172,-0.17,-0.1679,-0.1673,-0.1662,-0.1652,-0.165,-0.1643,-0.1637,-0.164,-0.1638,-0.1637,-0.1642,-0.1642,-0.1641,-0.1641,0,0,-0.1883,-0.1846,-0.1845,-0.1832,-0.1806,-0.1794,-0.1781,-0.176,-0.1752,-0.1734,-0.1722,-0.1698,-0.1691,-0.1679,-0.1665,-0.1658,-0.1656,-0.1651,-0.165,-0.1652,-0.1642,-0.1647,-0.1647,-0.1648,-0.1648,-0.1648,-0.1644,0,-0.1883,-0.1859,-0.1841,-0.1823,-0.1809,-0.1791,-0.1779,-0.1761,-0.1747,-0.1732,-0.1716,-0.17,-0.1692,-0.1684,-0.1675,-0.1658,-0.1653,-0.1658,-0.1636,-0.1636,-0.1642,-0.1646,-0.1652,-0.1649,-0.1643,-0.1643,-0.1642,0,-0.1881,-0.1864,-0.1844,-0.1818,-0.1812,-0.1802,-0.1781,-0.1767,-0.1746,-0.1736,-0.1721,-0.1707,-0.1691,-0.1687,-0.1664,-0.1668,-0.1657,-0.1647,-0.1647,-0.1644,-0.1639,-0.1643,-0.1647,-0.1647,-0.1641,-0.1641,-0.1641,0,-0.1896,-0.1867,-0.1852,-0.1842,-0.1811,-0.1804,-0.1791,-0.177,-0.1758,-0.174,-0.1732,-0.1712,-0.1701,-0.1685,-0.1665,-0.1664,-0.1644,-0.1638,-0.1635,-0.1636,-0.1632,-0.1632,-0.1634,-0.1626,-0.1626,-0.1626,-0.1626,0,-0.1898,-0.1887,-0.1857,-0.1848,-0.1835,-0.1814,-0.1801,-0.1786,-0.1767,-0.1754,-0.1736,-0.1724,-0.1699,-0.1684,-0.1669,-0.1652,-0.1647,-0.1638,-0.1634,-0.1639,-0.164,-0.1632,-0.1632,-0.1626,-0.1626,-0.1626,-0.1626,0,-0.1912,-0.1892,-0.1874,-0.1846,-0.1839,-0.183,-0.1806,-0.1795,-0.1779,-0.1763,-0.1758,-0.1733,-0.1713,-0.1692,-0.1666,-0.1656,-0.1639,-0.1634,-0.1647,-0.1644,-0.1642,-0.1642,-0.1639,-0.1637,-0.163,-0.163,-0.163,0,-0.1915,-0.1906,-0.1877,-0.1867,-0.1854,-0.1838,-0.1826,-0.1804,-0.1792,-0.1767,-0.1759,-0.1738,-0.1721,-0.1691,-0.167,-0.1649,-0.1643,-0.1643,-0.164,-0.1645,-0.1642,-0.1643,-0.1641,-0.1644,-0.1644,-0.1645,-0.1645,0,-0.1922,-0.1912,-0.1896,-0.1875,-0.1861,-0.1844,-0.1826,-0.1818,-0.1793,-0.178,-0.176,-0.1746,-0.1719,-0.1699,-0.1675,-0.1661,-0.1648,-0.1646,-0.1644,-0.1649,-0.1657,-0.1652,-0.1649,-0.1646,-0.1646,-0.1646,-0.1646,-0.1646,-0.193,-0.1921,-0.1899,-0.188,-0.1864,-0.1848,-0.1836,-0.1819,-0.1802,-0.1778,-0.1766,-0.1746,-0.1723,-0.1691,-0.1677,-0.166,-0.1656,-0.1654,-0.1653,-0.1652,-0.1653,-0.1659,-0.1656,-0.1656,-0.1656,-0.1656,-0.1655,0,-0.1936,-0.1921,-0.1904,-0.1879,-0.1864,-0.1853,-0.1833,-0.1821,-0.1803,-0.1784,-0.1766,-0.1743,-0.1722,-0.1699,-0.1677,-0.1668,-0.1662,-0.1663,-0.1664,-0.166,-0.1659,-0.1662,-0.1669,-0.1669,-0.1669,-0.1669,-0.1669,-0.1669,-0.1937,-0.1921,-0.1908,-0.1883,-0.1867,-0.1847,-0.1836,-0.182,-0.1804,-0.1779,-0.1762,-0.1747,-0.1725,-0.1701,-0.1682,-0.1675,-0.1668,-0.1671,-0.1663,-0.1662,-0.1661,-0.166,-0.1663,-0.167,-0.167,-0.1666,-0.1666,-0.1666]},{"header":{"parameterUnit":"m.s-1","parameterCategory":1,"la1":30.2991,"la2":30.254,"lo1":-89.0895,"lo2":-89.0444,"dy":0.0017,"dx":0.0017,"nx":28,"ny":28,"refTime":"2025-08-25T21:00:00:Z","depth":0,"parameterNumber":3,"parameterNumberName":"V-component_of_WINDS"},"data":[0,0,0,0,0,0,0,0,0,0,0,0,0,0,0,0,0,0,0,0,0,0,0,0,0,0,0,0,0,0,0,0,0,0,0,0,0,0,0,0,0,0,0,0,0,0,0,0,0,0,0,0,0,0,0,0,0,0,-1.4945,-1.4946,0,-1.5028,-1.5029,-1.503,-1.5076,-1.5076,-1.5077,-1.5077,-1.5159,-1.5161,-1.5163,0,0,0,0,0,0,0,0,0,0,0,0,0,-1.4826,-1.4828,-1.4945,-1.4946,-1.4947,-1.5028,-1.5029,-1.503,-1.5076,-1.5076,-1.5077,-1.5077,-1.5159,-1.5161,-1.5163,0,0,0,0,0,0,0,0,0,0,0,0,0,-1.489,-1.4829,-1.4945,-1.498,-1.4984,-1.5027,-1.5029,-1.503,-1.5076,-1.5077,-1.5077,-1.5077,-1.5158,-1.5161,-1.5164,-1.5178,0,0,-1.5173,-1.5174,0,0,0,0,0,0,0,0,-1.4887,-1.4895,-1.4974,-1.4978,-1.4983,-1.5042,-1.5017,-1.508,-1.5076,-1.5041,-1.5077,-1.5077,-1.512,-1.5126,-1.5141,-1.5182,-1.5185,-1.5173,-1.5175,-1.5177,-1.5177,0,0,0,0,0,0,0,-1.4882,-1.4891,-1.4978,-1.4975,-1.498,-1.4991,-1.5001,-1.5029,-1.5078,-1.5044,-1.5048,-1.5057,-1.5122,-1.5138,-1.5143,-1.5186,-1.5173,-1.5176,-1.5178,-1.5179,-1.5242,-1.5242,0,0,0,0,0,0,-1.4872,-1.4887,-1.4975,-1.498,-1.4934,-1.4993,-1.5004,-1.5023,-1.5078,-1.5087,-1.5057,-1.5059,-1.5133,-1.514,-1.5146,-1.5166,-1.5177,-1.5179,-1.5181,-1.5242,-1.5242,-1.5242,0,0,0,0,0,0,-1.487,-1.488,-1.4972,-1.4935,-1.4947,-1.4995,-1.5016,-1.5024,-1.504,-1.5087,-1.5096,-1.5064,-1.5133,-1.5142,-1.517,-1.5169,-1.5181,-1.5184,-1.5242,-1.5242,-1.5242,-1.5205,0,0,0,0,0,0,-1.4866,-1.4878,-1.4885,-1.4935,-1.4949,-1.4994,-1.5016,-1.5026,-1.5045,-1.5049,-1.5096,-1.5105,-1.5134,-1.5165,-1.5173,-1.5174,-1.5186,-1.5243,-1.5242,-1.5242,-1.5207,-1.5204,-1.5201,0,0,0,0,0,-1.4862,-1.4871,-1.4885,-1.4895,-1.4958,-1.4994,-1.5003,-1.5037,-1.5045,-1.5051,-1.5082,-1.5103,-1.5168,-1.5167,-1.5176,-1.5179,-1.5243,-1.5242,-1.5242,-1.5208,-1.5204,-1.5201,0,0,0,0,0,0,-1.4819,-1.4878,-1.4894,-1.492,-1.4952,-1.5002,-1.5011,-1.5032,-1.5061,-1.5064,-1.5104,-1.5114,-1.5138,-1.5161,-1.5159,-1.5195,-1.5208,-1.5209,-1.5179,-1.5176,-1.5173,-1.5167,-1.5188,0,0,0,0,0,-1.4813,-1.4838,-1.4888,-1.4906,-1.4921,-1.4963,-1.498,-1.5004,-1.5038,-1.5051,-1.5084,-1.5116,-1.5144,-1.5161,-1.5189,-1.521,-1.5221,-1.5216,-1.5214,-1.5211,-1.5212,-1.5224,-1.5223,-1.5241,-1.5241,-1.5241,0,0,-1.48,-1.4835,-1.4848,-1.4898,-1.4925,-1.495,-1.4974,-1.4999,-1.5017,-1.5055,-1.5083,-1.5108,-1.5146,-1.5171,-1.5183,-1.5191,-1.5209,-1.5211,-1.5208,-1.5211,-1.5224,-1.5222,-1.522,-1.524,-1.524,-1.524,0,0,-1.4788,-1.4818,-1.4836,-1.4863,-1.4904,-1.4933,-1.4937,-1.4984,-1.5002,-1.5031,-1.506,-1.5082,-1.5129,-1.5155,-1.5174,-1.5173,-1.5193,-1.5181,-1.5167,-1.5178,-1.5177,-1.5176,-1.5174,-1.5174,-1.5181,-1.5181,-1.5181,0,-1.4767,-1.4805,-1.4842,-1.4866,-1.4886,-1.4922,-1.494,-1.4965,-1.5013,-1.5026,-1.5034,-1.5094,-1.5122,-1.5153,-1.5152,-1.5167,-1.5173,-1.5175,-1.5174,-1.5173,-1.5173,-1.5172,-1.5172,-1.5179,-1.518,-1.518,-1.518,0,-1.4776,-1.4802,-1.4812,-1.4858,-1.488,-1.49,-1.494,-1.4957,-1.4979,-1.5006,-1.5034,-1.507,-1.5106,-1.5115,-1.5136,-1.5148,-1.5152,-1.5166,-1.518,-1.5169,-1.5169,-1.5169,-1.5177,-1.5178,-1.5178,-1.5179,0,0,-1.474,-1.4807,-1.4809,-1.4831,-1.4879,-1.49,-1.4921,-1.4957,-1.4971,-1.5003,-1.5021,-1.5061,-1.5074,-1.5096,-1.5121,-1.5131,-1.5127,-1.5145,-1.5146,-1.5139,-1.5142,-1.513,-1.5129,-1.5141,-1.5141,-1.5141,-1.5138,0,-1.4735,-1.4777,-1.4811,-1.4839,-1.4863,-1.4898,-1.4917,-1.4948,-1.4974,-1.4998,-1.5026,-1.5053,-1.507,-1.5083,-1.5095,-1.5125,-1.5128,-1.5125,-1.5158,-1.5158,-1.5146,-1.5129,-1.5117,-1.5112,-1.5139,-1.5139,-1.5139,0,-1.4735,-1.4766,-1.4797,-1.4843,-1.4854,-1.4871,-1.4906,-1.4928,-1.4964,-1.4982,-1.5007,-1.5032,-1.5056,-1.5068,-1.5101,-1.5099,-1.5114,-1.5131,-1.5131,-1.5135,-1.5147,-1.5131,-1.5112,-1.5111,-1.5139,-1.5139,-1.5139,0,-1.4705,-1.4754,-1.4779,-1.4796,-1.485,-1.4861,-1.4884,-1.492,-1.4939,-1.497,-1.4982,-1.5015,-1.5033,-1.5057,-1.5091,-1.5096,-1.512,-1.5135,-1.5135,-1.5134,-1.5138,-1.5137,-1.5119,-1.5149,-1.5149,-1.5149,-1.5149,0,-1.4695,-1.4713,-1.4766,-1.4781,-1.4802,-1.484,-1.4859,-1.4885,-1.4917,-1.4937,-1.4969,-1.4988,-1.5031,-1.5054,-1.5081,-1.5104,-1.5112,-1.5126,-1.5133,-1.5123,-1.5121,-1.5133,-1.5134,-1.5149,-1.5149,-1.5149,-1.5149,0,-1.4664,-1.4701,-1.473,-1.4779,-1.4792,-1.4804,-1.4846,-1.4862,-1.4889,-1.4915,-1.4923,-1.4966,-1.4995,-1.5031,-1.5072,-1.5089,-1.5109,-1.512,-1.5097,-1.5101,-1.5099,-1.5098,-1.5088,-1.5088,-1.5117,-1.5117,-1.5117,0,-1.4656,-1.467,-1.472,-1.4736,-1.4758,-1.4784,-1.4804,-1.4843,-1.4862,-1.4904,-1.4914,-1.4946,-1.4973,-1.5018,-1.5052,-1.5083,-1.5094,-1.5089,-1.5099,-1.5089,-1.5093,-1.5092,-1.5093,-1.5086,-1.5085,-1.5085,-1.5084,0,-1.4636,-1.4653,-1.4681,-1.4714,-1.4737,-1.4766,-1.4795,-1.4807,-1.4851,-1.4871,-1.4901,-1.4922,-1.4964,-1.4995,-1.503,-1.5053,-1.5076,-1.5081,-1.5083,-1.5072,-1.5058,-1.5065,-1.5089,-1.5081,-1.5081,-1.5081,-1.5082,-1.5082,-1.4615,-1.4629,-1.4667,-1.4696,-1.4723,-1.475,-1.4767,-1.4797,-1.4823,-1.486,-1.4881,-1.4911,-1.4946,-1.4997,-1.5019,-1.5042,-1.505,-1.5053,-1.5053,-1.5053,-1.5049,-1.5055,-1.5049,-1.5049,-1.5049,-1.5049,-1.5049,0,-1.4596,-1.4622,-1.4649,-1.469,-1.4713,-1.4733,-1.4767,-1.4784,-1.481,-1.4842,-1.4868,-1.4903,-1.4933,-1.497,-1.5002,-1.5014,-1.5025,-1.5021,-1.502,-1.5024,-1.5041,-1.5036,-1.5011,-1.5011,-1.5011,-1.5011,-1.5011,-1.5011,-1.4589,-1.4614,-1.4636,-1.4673,-1.47,-1.4729,-1.4747,-1.4771,-1.4797,-1.4834,-1.4859,-1.4884,-1.4917,-1.4952,-1.498,-1.4991,-1.5,-1.4993,-1.5006,-1.502,-1.5023,-1.5027,-1.5022,-1.4995,-1.4995,-1.4988,-1.4988,-1.4988]}]]